Tracking 18850 objects as of 22-Nov-2017
HD Live streaming from Space Station
objects crossing your sky now

FENGYUN 1C DEB

Track FENGYUN 1C DEB now!
10-day predictions


NORAD ID: 31497
Int'l Code: 1999-025BWL
Perigee: 653.3 km
Apogee: 906.1 km
Inclination: 98.4 °
Period: 100.3 minutes
Semi major axis: 7150 km
RCS: 0.0104 m2 (small)
Launch date: May 10, 1999
Source: People's Republic of China (PRC)
Launch site: Taiyaun Space Center, China (TSC)

Note: This is SATELLITE DEBRIS
aabbcc
Your satellite tracking list
Your tracking list is empty




NASA's NSSDC Master Catalog

Two Line Element Set (TLE):
1 31497U 99025BWL 17326.32541729  .00000104  00000-0  43881-4 0  9994
2 31497  98.4242   0.1917 0176772 151.8374 269.3825 14.35763308553932
Source of the keplerian elements: AFSPC